Location: T�bingen+AIT
(48.5342°N, 9.0700°E)
Time: 15:07:26
(UTC+01:00)

Resurs 01 Rocket - Pass Details

Date: 14 September 2017
Orbit: 635 x 644 km, 98.1° (Epoch: 18 November)

Event Time Altitude Azimuth Distance (km) Brightness Sun altitude
Rises 22:16:49 0° 215° (SW) 2,938 5.0 -25.0°
Reaches altitude 10° 22:20:08 10° 242° (WSW) 2,034 4.5 -25.4°
Maximum altitude 22:22:18 13° 272° (W) 1,817 4.6 -25.7°
Drops below altitude 10° 22:24:29 10° 301° (WNW) 2,040 5.2 -26.0°
Sets 22:27:50 0° 329° (NNW) 2,954 6.2 -26.4°
